Location: Blankensee
(53.5126°N, 14.3055°E)
Time: 17:57:05
(UTC+00:00)

CZ-2D R/B - Pass Details

Date: 08 August 2020
Orbit: 792 x 845 km, 98.7° (Epoch: 19 September)

Event Time Altitude Azimuth Distance (km) Brightness Sun altitude
Rises 00:05:47 0° 20° (NNE) 3,410 7.0 -19.3°
Reaches altitude 10° 00:08:20 10° 28° (NNE) 2,475 5.8 -19.2°
Maximum altitude 00:13:26 38° 96° (E) 1,267 3.2 -19.0°
Enters shadow 00:16:29 21° 151° (SSE) 1,791 3.5 -18.9°
